Weather History for Blagovescensk, Russia

Change the Weather History Date:

Saturday, February 16, 2013

  Actual Average Record
Temperature  
Mean Temperature -10 °F -  
Max Temperature 3 °F - - ()
Min Temperature -22 °F - - ()
Degree Days  
Heating Degree Days 74    
Moisture  
Dew Point -16 °F    
Average Humidity 76    
Maximum Humidity 92    
Minimum Humidity 56    
Precipitation  
Precipitation 0.00 in 0.01 in - ()
Sea Level Pressure  
Sea Level Pressure 30.15 in    
Wind  
Wind Speed 2 mph ()    
Max Wind Speed 9 mph    
Max Gust Speed -    
Visibility 4.3 miles    
Events      
T = Trace of Precipitation, MM = Missing Value Source: Averaged Metar Reports

Daily Weather History Graph

Daily Weather History Graph

Search for Another Location

Airport:

Trip Planner

Search our weather history database for the weather conditions in past years. The results will help you decide how hot, cold, wet, or windy it might be!

Date:

Astronomy

Feb. 16, 2013 Rise Set
Actual Time 8:40 AM YAKT 6:49 PM YAKT
Civil Twilight 8:06 AM YAKT 7:22 PM YAKT
Nautical Twilight 7:28 AM YAKT 8:01 PM YAKT
Astronomical Twilight 6:51 AM YAKT 8:38 PM YAKT
Moon 10:48 AM YAKT (2/16) 12:54 AM YAKT (2/16)
Length of Visible Light 11h 16m
Length of Day
10h 08m
Waxing Crescent, 33% of the Moon is Illuminated
Feb 16
Waxing Crescent
Feb 18
First Quarter
Feb 26
Full
Mar 5
Last Quarter
Mar 12
New

Hourly Weather History & Observations

Time (YAKT) Temp. Windchill Dew Point Humidity Pressure Visibility Wind Dir Wind Speed Gust Speed Precip Events Conditions
12:00 AM -7.6 °F - -14.8 °F 71% 30.15 in - SSW 2.2 mph - N/A   Clear
1:00 AM -7.6 °F - -13.0 °F 77% 30.15 in - SW 2.2 mph - N/A   Clear
2:00 AM -13.0 °F - -16.6 °F 84% 30.15 in - Calm Calm - N/A   Clear
3:00 AM -9.4 °F - -14.8 °F 77% 30.15 in - SW 2.2 mph - N/A   Clear
4:00 AM -14.8 °F - -16.6 °F 92% 30.15 in - Calm Calm - N/A   Clear
5:00 AM -14.8 °F - -18.4 °F 84% 30.15 in - Variable 2.2 mph - N/A   Clear
6:00 AM -16.6 °F - -18.4 °F 92% 30.15 in - SSW 2.2 mph - N/A   Clear
6:30 AM -18.4 °F - -20.2 °F 91% 30.15 in - Calm Calm - N/A   Clear
7:00 AM -18.4 °F - -20.2 °F 91% 30.15 in - Calm Calm - N/A   Clear
7:30 AM -18.4 °F - -20.2 °F 91% 30.15 in - Calm Calm - N/A   Clear
8:00 AM -22.0 °F - -23.8 °F 91% 30.15 in - NW 2.2 mph - N/A   Clear
8:30 AM -22.0 °F - -23.8 °F 91% 30.15 in - Variable 2.2 mph - N/A   Clear
9:00 AM -20.2 °F - -22.0 °F 91% 30.15 in - Variable 2.2 mph - N/A   Clear
9:30 AM -22.0 °F - -25.6 °F 83% 30.18 in - Variable 2.2 mph - N/A   Clear
10:00 AM -18.4 °F - -22.0 °F 84% 30.18 in - Calm Calm - N/A   Clear
10:30 AM -16.6 °F - -20.2 °F 84% 30.18 in - Calm Calm - N/A   Clear
11:00 AM -16.6 °F - -20.2 °F 84% 30.18 in - Variable 2.2 mph - N/A   Clear
11:30 AM -16.6 °F - -22.0 °F 76% 30.18 in - Variable 2.2 mph - N/A   Clear
12:00 PM -13.0 °F - -20.2 °F 70% 30.18 in - Variable 2.2 mph - N/A   Clear
12:30 PM -9.4 °F - -16.6 °F 71% 30.15 in - Variable 2.2 mph - N/A   Clear
1:00 PM -7.6 °F - -16.6 °F 65% 30.15 in - ENE 2.2 mph - N/A   Clear
1:30 PM -4.0 °F - -13.0 °F 65% 30.15 in - Calm Calm - N/A   Clear
2:00 PM -0.4 °F - -11.2 °F 60% 30.15 in - Variable 2.2 mph - N/A   Clear
2:30 PM 3.2 °F - -9.4 °F 56% 30.15 in - Variable 2.2 mph - N/A   Clear
3:00 PM 1.4 °F -11.0 °F -9.4 °F 61% 30.15 in - South 6.7 mph - N/A   Clear
3:30 PM 1.4 °F -11.0 °F -9.4 °F 61% 30.12 in - South 6.7 mph - N/A   Clear
4:00 PM 1.4 °F -11.0 °F -9.4 °F 61% 30.12 in - South 6.7 mph - N/A   Clear
4:30 PM -0.4 °F -15.5 °F -11.2 °F 60% 30.12 in - SE 8.9 mph - N/A   Clear
5:00 PM -0.4 °F -13.2 °F -9.4 °F 66% 30.12 in - SE 6.7 mph - N/A   Clear
5:30 PM -0.4 °F -13.2 °F -9.4 °F 66% 30.12 in - SE 6.7 mph - N/A   Clear
6:00 PM -0.4 °F -10.2 °F -9.4 °F 66% 30.12 in - SE 4.5 mph - N/A   Clear
6:30 PM -2.2 °F -15.4 °F -9.4 °F 71% 30.12 in - ESE 6.7 mph - N/A   Clear
7:00 PM -4.0 °F -17.5 °F -11.2 °F 71% 30.12 in - East 6.7 mph - N/A   Clear
7:30 PM -5.8 °F -16.4 °F -13.0 °F 71% 30.15 in - ESE 4.5 mph - N/A   Clear
8:00 PM -9.4 °F - -14.8 °F 77% 30.15 in - ENE 2.2 mph - N/A   Clear
9:00 PM -11.2 °F - -16.6 °F 77% 30.15 in - Calm Calm - N/A   Clear
10:00 PM -9.4 °F - -13.0 °F 84% 30.15 in 4.3 mi Variable 2.2 mph - N/A   Unknown
11:00 PM -14.8 °F - -16.6 °F 92% 30.15 in 4.3 mi Calm Calm - N/A   Unknown